Temperature
15 15 15 16 14 12 14 16 17 19 19 20 20 20 18 18 19 18 17 17 18 18 17 17 17 17 17 17 17 17 17 17 17 17 17 17 17 17 17 17 16 16 16 16 16 16 16 16 16
15 15 16 15 13 14 15 16 18 18 20 20 20 19 18 17 17 17 17 17 17 18 17 17 17 17 17 17 17 17 17 17 17 17 17 17 17 17 16 16 16 16 16 16 16 16 16 16 16
15 15 15 12 13 14 16 17 17 19 20 20 20 19 18 17 17 17 18 17 17 17 17 17 17 17 17 17 17 17 17 17 17 17 17 17 17 16 16 16 16 16 16 16 16 16 16 16 16
15 15 15 12 14 14 16 18 18 19 20 20 19 17 18 18 18 18 17 17 17 17 17 17 17 17 17 17 17 17 17 17 17 16 16 16 16 16 16 16 16 16 16 16 16 16 16 15 15
14 14 13 13 14 15 16 18 19 18 19 19 19 16 17 18 18 18 17 17 17 17 17 17 16 16 16 16 16 16 16 16 16 16 16 16 16 16 16 16 16 16 16 15 15 15 15 15 15
14 12 12 13 14 16 16 19 19 18 18 19 18 16 16 17 17 17 17 17 17 17 16 16 16 16 16 16 16 16 16 16 16 16 16 16 16 16 16 16 15 15 15 15 15 15 15 15 15
13 11 12 14 15 16 17 19 18 17 17 18 19 16 16 16 17 17 17 17 16 16 16 16 16 16 16 16 16 16 16 16 16 16 16 16 16 16 15 15 15 15 15 15 15 15 15 15 15
14 11 13 14 15 16 17 18 18 18 18 19 19 16 16 17 16 16 16 16 16 16 16 16 16 15 15 16 16 16 16 15 15 15 15 15 15 15 15 15 15 15 15 15 15 15 15 15 14
14 11 12 14 15 16 17 17 18 18 18 18 18 19 18 17 16 16 16 16 16 15 16 15 15 15 15 15 15 15 15 15 15 15 15 15 15 15 15 15 15 15 15 15 14 14 14 14 14
13 11 12 14 15 15 16 16 17 17 17 17 17 18 17 17 16 16 16 15 15 15 15 15 15 15 15 15 15 15 15 15 15 15 15 15 15 15 15 15 14 14 14 14 14 14 14 14 14
12 11 13 14 15 15 15 16 16 16 15 16 17 17 17 16 16 16 16 16 15 15 15 15 15 15 15 15 15 15 15 15 15 15 15 14 14 14 14 14 14 14 14 14 14 14 14 14 14
11 12 13 14 15 15 15 15 15 16 16 17 17 17 17 16 16 16 16 15 15 15 15 15 15 15 15 15 15 15 15 15 14 14 14 14 14 14 14 14 14 14 14 14 14 14 13 13 13
11 12 13 14 15 15 15 14 14 15 16 16 16 16 16 16 16 16 16 15 15 15 15 15 15 14 14 14 14 14 14 14 14 14 14 14 14 14 13 13 13 13 13 13 13 13 13 13 13
12 12 13 13 14 14 14 13 14 15 16 16 16 16 16 16 16 16 15 15 15 15 15 15 14 14 14 14 14 14 14 14 14 14 13 13 13 13 13 13 13 13 13 13 13 13 13 13 13
12 11 12 12 13 13 13 12 12 15 15 15 15 15 15 16 16 15 15 15 15 15 15 14 14 14 14 14 14 14 14 13 13 13 13 13 13 13 13 13 13 13 13 12 12 12 12 12 12
11 10 10 11 12 12 12 11 12 14 14 14 14 15 15 15 15 15 15 15 15 15 15 14 14 14 14 14 14 13 13 13 13 13 13 13 13 13 13 12 12 12 12 12 12 12 12 12 12
10 9 9 11 11 11 11 11 11 14 13 13 14 14 15 15 15 15 15 15 15 15 14 14 14 14 14 13 13 13 13 13 13 13 13 13 13 12 12 12 12 12 12 12 12 12 12 12 12
8 8 9 10 11 11 10 10 11 13 13 13 13 14 14 14 14 15 15 14 15 14 14 14 14 14 13 13 13 13 13 13 12 12 12 12 12 12 12 12 12 12 12 12 11 11 11 11 11
9 9 10 10 11 10 10 10 10 11 11 11 12 13 13 14 14 14 14 14 14 14 14 14 14 13 13 13 13 13 13 12 12 12 12 12 12 12 12 12 11 11 11 11 11 11 11 10 10
9 9 9 10 10 10 10 9 10 10 11 12 12 13 13 14 14 14 14 14 14 14 14 13 13 13 13 13 13 13 12 12 12 12 12 12 12 12 11 11 11 11 11 11 10 10 10 10 10
9 8 9 9 10 10 9 9 9 10 11 12 12 13 13 13 13 13 13 13 13 13 13 13 13 13 13 12 12 12 12 12 11 11 11 11 11 11 11 11 11 11 10 10 10 10 10 10 10
8 9 9 9 8 7 9 7 8 9 9 9 10 12 12 13 13 13 13 13 13 13 13 13 13 12 12 12 12 12 12 11 11 11 11 11 11 11 11 11 11 10 10 10 10 10 10 9 9
8 9 9 9 8 7 7 7 7 8 9 9 9 11 12 12 13 13 13 13 13 13 12 12 12 12 12 11 11 11 11 11 11 11 11 11 11 11 10 10 10 10 10 10 9 9 9 9 9
8 8 7 6 6 6 7 7 7 7 8 9 9 10 11 12 12 12 12 12 12 12 12 11 11 11 11 11 11 11 11 11 10 10 10 10 10 10 10 10 9 9 9 9 9 9 9 9 8
7 6 6 6 5 5 6 7 7 8 8 9 9 9 10 11 11 11 11 11 11 11 11 11 11 11 11 11 10 10 10 10 10 10 10 10 10 10 10 9 9 9 9 9 8 8 8 8 8
6 6 5 5 5 5 6 6 7 7 8 9 9 9 10 10 10 10 10 10 10 10 10 10 10 10 10 10 10 10 10 10 10 9 9 9 9 9 9 9 8 8 8 8 8 8 8 7 7
6 5 6 5 5 5 6 6 7 8 7 7 7 8 8 9 9 9 10 10 10 10 10 10 10 10 10 10 10 9 9 9 9 9 9 9 9 8 8 8 8 8 8 7 7 7 7 7 7
6 5 5 5 5 6 6 6 6 7 6 6 6 7 7 8 9 9 9 9 9 9 9 9 9 9 9 9 9 9 9 9 8 8 8 8 8 8 8 8 7 7 7 7 7 7 6 6 6
5 5 5 4 4 5 6 6 6 6 6 6 5 6 7 7 8 8 8 8 8 8 8 8 8 8 8 8 8 8 8 8 8 8 8 7 7 7 7 7 7 7 6 6 6 6 6 6 6
5 4 4 4 4 3 4 5 6 5 5 5 6 6 7 7 7 7 7 7 7 7 7 7 7 8 7 7 7 8 7 7 7 7 7 7 7 6 6 6 6 6 6 5 5 5 5 5 5
Wind_Speed
5 4 3 3 5 3 4 6 5 2 2 1 3 8 9 6 4 6 3 8 12 12 13 15 16 15 15 15 14 14 14 13 13 13 13 12 12 12 11 11 11 10 10 10 10 10 10 10 9
3 2 4 4 4 2 6 6 6 5 5 4 4 6 7 4 3 7 5 9 13 13 13 14 16 16 15 15 14 14 13 13 13 12 12 12 11 11 11 10 10 10 9 9 9 9 9 9 8
2 1 4 4 4 7 6 4 6 4 3 2 3 5 6 6 5 6 7 12 12 11 13 15 16 15 15 15 14 14 13 12 12 12 11 11 10 10 10 10 9 9 9 9 9 8 8 8 7
2 3 4 3 6 7 6 4 3 2 1 2 5 5 3 1 5 7 11 13 12 9 12 15 16 15 14 14 14 13 13 12 11 11 10 10 9 9 9 9 9 9 8 8 8 8 7 7 6
3 3 3 2 7 6 5 5 3 2 2 2 5 6 3 4 6 12 13 13 13 9 11 14 15 15 14 14 13 12 12 12 11 10 10 9 9 9 9 9 8 8 8 7 7 7 6 6 6
3 3 4 5 7 5 5 5 2 2 2 2 5 6 2 1 8 11 12 11 12 11 10 13 15 14 14 13 12 12 11 11 11 10 10 9 9 9 8 8 8 7 7 6 6 6 6 5 5
4 4 6 6 5 5 5 3 5 5 3 3 6 7 3 3 6 9 11 11 10 11 10 9 11 12 13 12 12 11 11 11 10 10 9 9 8 8 8 7 7 6 6 5 5 5 5 4 3
5 4 4 5 5 5 3 1 2 5 4 2 5 9 7 8 7 9 10 10 9 8 8 8 9 10 10 10 11 11 11 10 9 9 8 8 7 7 7 6 6 6 5 5 4 4 3 3 2
4 3 5 6 6 4 1 1 2 1 4 3 2 5 7 10 10 11 9 7 7 8 6 7 7 8 9 9 10 10 10 9 8 8 8 7 6 6 6 5 5 5 4 4 3 3 3 2 1
4 5 8 4 3 2 2 1 0 2 4 3 4 4 7 9 12 13 12 11 9 9 7 7 7 7 7 7 8 7 7 7 7 7 7 6 6 5 5 5 5 4 4 3 3 2 2 2 1
6 7 5 3 3 1 2 3 2 4 2 4 7 7 8 8 10 11 11 11 10 9 8 7 7 7 7 5 6 5 6 6 6 6 6 6 5 4 4 4 3 3 3 2 1 1 1 1 1
5 5 4 3 2 1 1 1 2 2 5 4 7 10 9 10 10 11 11 10 9 9 8 7 7 7 6 6 5 5 4 4 4 5 6 5 4 3 3 3 2 2 2 2 1 1 1 1 1
5 4 4 4 2 2 1 2 2 5 5 2 5 7 9 9 8 7 9 9 9 8 8 8 8 7 7 6 4 4 4 4 4 4 5 5 3 2 2 2 2 2 2 2 1 0 0 1 1
5 4 3 3 3 2 3 4 3 7 3 2 5 7 8 9 8 6 7 8 8 8 8 7 8 8 7 6 5 4 4 4 4 4 5 6 5 3 2 2 1 1 2 2 1 1 1 1 1
2 2 3 5 5 4 2 6 8 8 4 5 6 7 7 8 8 9 9 9 9 9 8 8 8 7 7 6 5 5 4 5 4 3 4 5 5 4 3 2 1 1 2 2 1 0 0 1 1
3 2 4 5 6 5 6 10 8 6 7 8 7 7 7 7 8 8 8 8 8 8 8 8 8 8 7 6 5 4 4 4 4 4 4 4 5 5 4 3 2 2 2 1 1 1 1 1 1
2 5 6 5 5 5 7 9 7 4 7 9 9 8 8 7 7 7 7 8 8 9 9 8 7 8 7 6 5 4 4 4 3 4 3 4 4 5 4 2 2 2 1 1 1 1 1 1 1
7 6 5 7 4 5 7 9 8 6 6 9 9 8 8 9 10 8 7 7 8 7 8 8 7 7 6 5 4 3 2 2 2 2 3 3 4 4 4 2 2 2 1 1 1 1 1 1 2
6 6 5 5 4 4 8 10 11 9 7 8 9 8 9 10 9 7 7 6 6 6 7 7 7 6 6 4 4 3 2 2 1 2 2 3 3 4 3 2 2 1 2 2 2 1 1 1 0
5 4 5 4 2 3 6 10 10 9 9 10 10 10 10 8 6 6 6 6 7 8 8 8 8 7 7 5 4 3 3 2 2 1 1 2 3 3 2 3 2 2 2 2 2 1 1 1 1
8 7 6 4 2 3 2 7 8 7 7 8 8 9 9 11 10 8 7 7 7 7 8 8 8 7 7 5 4 3 3 2 1 0 1 2 2 3 2 2 2 2 2 3 3 3 3 2 1
8 7 6 5 2 3 2 5 7 6 6 7 8 8 8 9 9 9 8 8 8 7 6 7 7 7 6 6 6 6 4 3 3 2 2 1 2 2 2 2 2 2 2 3 3 3 2 3 2
5 4 5 4 4 3 3 4 8 4 6 8 8 8 7 7 8 9 9 9 7 6 6 5 6 5 5 6 6 6 4 2 2 1 1 1 1 2 1 2 1 2 2 3 2 2 2 2 3
4 4 3 2 2 5 8 7 7 5 7 6 5 5 5 6 6 7 7 7 5 5 5 5 6 5 5 5 5 5 5 4 3 2 2 1 1 0 1 2 1 1 2 2 2 2 3 2 3
5 6 2 1 3 7 6 6 8 7 6 6 6 4 3 5 6 7 7 6 6 5 5 5 6 5 4 4 4 5 5 6 6 5 4 2 1 1 1 1 1 1 1 2 2 2 2 2 3
6 8 7 7 6 4 4 8 6 5 3 2 3 4 4 4 5 6 7 7 6 6 5 5 5 4 4 4 3 3 4 4 4 4 3 3 3 2 2 1 1 1 1 1 1 1 2 2 2
6 5 5 5 3 2 5 4 5 2 3 3 3 4 4 3 4 5 5 5 5 5 5 5 5 4 3 3 3 3 3 3 4 3 3 2 2 1 1 1 1 1 0 0 0 1 1 1 2
4 5 4 5 6 4 4 4 4 3 2 2 3 3 2 3 4 4 4 4 4 4 3 3 4 4 3 3 3 3 3 3 3 3 3 3 2 2 2 1 0 0 0 0 0 1 1 1 2
3 3 3 4 4 5 4 4 2 4 4 4 3 2 3 3 3 3 3 3 3 3 3 3 3 3 3 3 2 2 2 2 3 3 3 2 2 2 2 1 0 0 0 1 0 1 1 2 2
3 3 4 4 4 4 3 4 4 0 2 4 4 3 3 4 3 4 4 4 4 4 3 3 2 2 2 2 3 2 2 2 2 2 2 2 2 1 1 1 1 0 0 1 1 2 2 3 3
Wind_Direction
333 354 74 62 64 65 236 241 225 207 172 190 121 108 112 110 138 157 154 144 138 141 144 142 137 133 129 125 123 121 119 116 114 111 110 109 109 108 106 105 105 103 102 99 97 97 96 94 94
6 26 67 68 107 174 252 241 223 221 191 159 104 98 91 84 92 117 130 143 139 140 141 142 138 134 131 128 125 123 121 119 118 115 114 112 110 109 108 106 104 102 101 99 98 98 96 95 94
359 102 96 94 155 194 224 230 211 216 213 159 86 74 105 130 134 140 150 140 130 131 136 140 138 136 133 130 127 125 123 122 121 119 118 118 116 113 111 110 107 104 103 102 103 100 97 96 95
59 68 70 114 221 227 220 222 177 144 76 79 109 71 71 117 161 144 137 134 128 129 133 137 136 135 133 132 129 127 125 124 123 123 122 120 121 119 113 112 108 105 105 107 106 103 102 99 95
69 95 116 216 239 247 235 238 220 148 130 98 109 101 57 347 113 125 133 134 134 135 135 138 136 135 134 132 130 128 127 125 124 124 123 120 121 120 117 115 112 108 108 111 112 111 108 104 96
78 95 143 215 240 252 249 237 194 175 157 121 111 113 133 84 120 134 138 135 137 138 132 136 136 135 134 133 132 130 129 127 126 125 123 121 122 123 120 121 118 118 115 115 115 115 112 108 98
132 139 188 210 230 246 244 226 178 174 164 172 137 120 146 183 148 136 134 131 131 133 130 127 133 133 135 134 133 132 130 129 128 127 125 122 122 123 123 121 123 123 122 121 118 118 120 116 109
151 140 205 219 215 234 257 181 174 167 172 153 123 141 175 197 154 123 120 122 126 129 132 129 128 129 131 133 136 134 132 131 131 129 128 125 124 124 125 125 126 126 122 122 123 124 125 124 125
125 129 209 217 207 227 315 63 0 87 106 70 84 165 179 154 131 120 118 119 129 134 137 137 131 129 131 133 137 135 134 133 130 126 127 124 118 123 126 125 127 125 125 125 125 128 132 139 152
137 189 217 228 214 223 346 39 303 72 78 70 52 64 111 131 135 139 145 149 151 153 155 150 144 140 135 137 131 130 129 127 123 122 123 120 119 122 123 127 127 125 122 123 118 125 134 132 137
174 199 219 257 273 293 359 347 346 121 163 172 155 148 138 139 144 150 156 159 161 162 160 160 153 145 141 131 131 128 124 122 123 128 131 124 115 111 106 110 120 121 121 110 115 102 113 128 148
191 226 212 228 273 327 297 332 341 226 211 186 167 161 157 158 165 164 163 165 162 160 164 162 156 148 146 139 137 136 127 127 128 140 140 127 111 102 111 113 119 117 120 113 104 117 140 174 209
219 239 232 234 233 239 258 252 257 257 256 198 146 158 172 177 179 176 166 165 162 164 168 166 157 153 150 143 144 139 139 141 147 147 152 144 131 144 126 125 125 128 129 136 135 150 215 239 244
211 222 261 261 250 237 227 263 239 248 225 173 166 181 190 190 185 176 171 170 171 172 172 166 161 157 150 153 154 152 147 144 142 148 163 160 151 144 140 133 123 138 159 166 160 177 226 259 258
155 177 284 249 222 221 183 269 234 231 208 205 206 207 208 204 193 188 186 179 176 173 170 167 165 157 153 155 156 149 148 145 137 149 161 162 161 154 145 152 164 176 177 167 143 172 84 298 282
121 150 236 251 197 190 169 247 252 227 199 218 221 219 216 217 207 200 192 183 176 168 168 171 165 158 158 155 151 146 143 140 141 146 148 155 160 160 146 156 180 173 154 148 184 198 202 248 272
171 197 217 254 205 178 185 238 258 230 198 220 224 220 218 219 218 209 191 181 175 171 169 169 163 162 162 155 147 141 138 144 145 145 144 154 156 156 146 157 169 154 131 161 202 209 194 223 258
194 197 205 222 217 181 209 244 265 259 223 225 224 221 218 215 216 205 192 181 174 169 165 163 161 163 156 145 131 122 117 136 141 147 154 154 156 154 140 140 150 140 153 184 194 208 222 218 229
174 180 210 232 233 199 227 248 258 257 246 236 229 220 217 221 221 200 187 177 169 164 162 165 161 164 154 149 149 147 160 173 174 176 164 160 160 157 143 150 150 151 180 195 193 199 203 264 204
210 211 232 270 259 214 245 258 260 250 235 226 220 217 215 215 215 201 185 176 175 174 171 168 168 168 166 168 166 161 158 170 180 174 169 168 162 161 153 155 171 181 191 198 202 176 175 236 134
219 210 211 220 338 345 299 288 261 259 239 234 227 219 211 204 201 195 183 181 174 176 176 174 173 170 167 157 133 110 86 67 69 171 200 192 169 165 164 167 168 188 189 204 213 195 181 202 234
224 214 200 195 178 264 191 271 275 257 261 240 232 223 213 206 192 183 174 173 174 179 172 163 166 163 160 151 152 154 161 177 202 200 204 201 173 170 175 175 178 190 201 208 217 206 200 181 209
193 180 182 191 181 249 234 226 278 274 247 245 231 219 211 198 184 179 176 173 166 160 156 151 146 150 154 156 160 161 164 175 171 165 173 193 188 165 165 165 167 200 210 217 215 212 205 193 198
154 100 67 65 131 242 218 201 269 241 228 236 226 208 198 185 176 170 165 151 144 139 138 142 142 147 154 157 162 166 169 167 162 179 192 207 211 208 173 148 163 218 211 214 214 213 208 212 210
138 129 120 199 220 241 201 198 246 255 245 217 197 184 177 162 158 154 151 150 150 147 148 150 149 153 159 160 169 177 178 177 183 189 193 189 200 222 217 162 188 227 221 214 205 205 210 210 212
183 162 170 186 204 248 200 217 250 278 270 177 146 139 123 129 145 154 157 155 157 155 153 154 157 159 163 164 179 183 181 182 191 191 186 188 199 213 203 181 190 213 228 236 203 207 227 221 219
158 192 172 140 153 201 239 260 302 354 56 77 90 97 102 111 124 137 143 143 147 152 159 163 161 159 167 171 171 172 175 178 184 182 179 185 187 184 169 164 165 184 210 219 213 220 238 223 236
156 154 131 152 167 212 246 236 225 238 196 133 112 105 89 86 97 104 124 138 139 139 133 137 149 158 165 162 166 165 173 173 171 165 171 172 168 154 149 142 124 185 223 214 301 267 252 228 250
145 153 148 156 171 171 206 248 243 221 186 153 137 119 114 103 98 99 102 114 111 99 101 107 125 129 134 140 142 143 162 157 151 157 162 156 146 145 142 151 174 286 335 342 316 281 277 260 267
162 171 148 167 211 186 181 259 323 184 134 121 108 87 89 95 94 93 91 94 93 94 91 92 100 113 124 127 123 125 124 122 128 139 142 131 130 134 139 141 120 356 320 297 263 274 280 270 268
Height
1502 1503 1505 1507 1510 1519 1517 1507 1498 1494 1493 1492 1491 1492 1494 1499 1502 1509 1507 1507 1509 1512 1514 1516 1518 1520 1522 1523 1524 1526 1527 1528 1529 1530 1530 1531 1532 1533 1533 1534 1534 1535 1535 1535 1535 1535 1536 1536 1536
1501 1503 1506 1506 1514 1522 1515 1502 1496 1492 1491 1491 1491 1493 1494 1498 1500 1502 1504 1507 1510 1512 1514 1516 1518 1520 1522 1523 1525 1526 1527 1528 1529 1530 1531 1531 1532 1533 1533 1534 1534 1535 1535 1535 1536 1536 1536 1536 1536
1501 1503 1505 1507 1513 1515 1505 1495 1491 1489 1490 1490 1491 1493 1496 1499 1500 1502 1504 1507 1510 1512 1514 1516 1518 1520 1522 1523 1525 1526 1527 1528 1529 1530 1531 1531 1532 1533 1534 1534 1535 1535 1535 1536 1536 1536 1536 1537 1537
1501 1503 1505 1510 1509 1502 1496 1491 1489 1488 1489 1489 1491 1495 1497 1500 1501 1502 1505 1507 1510 1512 1514 1516 1518 1520 1522 1523 1525 1526 1527 1528 1529 1530 1531 1531 1532 1533 1534 1534 1535 1535 1535 1536 1536 1536 1537 1537 1537
1500 1501 1506 1509 1504 1496 1491 1489 1488 1488 1488 1489 1490 1494 1498 1500 1501 1503 1505 1508 1509 1511 1514 1516 1518 1520 1521 1523 1524 1526 1527 1528 1529 1530 1530 1531 1532 1532 1533 1534 1534 1535 1535 1536 1536 1536 1536 1537 1537
1499 1500 1509 1509 1501 1493 1489 1487 1488 1488 1489 1489 1490 1494 1498 1501 1502 1503 1506 1508 1510 1511 1513 1516 1518 1519 1521 1523 1524 1525 1526 1527 1528 1529 1530 1530 1531 1532 1532 1533 1534 1534 1535 1535 1535 1536 1536 1536 1536
1498 1501 1503 1501 1497 1493 1488 1486 1487 1487 1488 1489 1489 1494 1498 1501 1502 1504 1506 1508 1510 1512 1513 1515 1517 1519 1521 1522 1523 1524 1526 1527 1527 1528 1529 1530 1530 1531 1532 1532 1533 1534 1534 1534 1535 1535 1535 1536 1536
1495 1499 1498 1497 1494 1491 1486 1485 1485 1485 1487 1489 1489 1492 1496 1499 1501 1504 1506 1508 1509 1511 1513 1515 1516 1518 1520 1521 1522 1524 1525 1526 1527 1527 1528 1529 1530 1530 1531 1531 1532 1533 1533 1533 1534 1534 1535 1535 1535
1494 1500 1499 1494 1491 1487 1484 1484 1485 1485 1485 1487 1488 1490 1492 1497 1500 1502 1505 1507 1509 1511 1512 1514 1515 1517 1519 1520 1521 1523 1524 1525 1526 1526 1527 1528 1528 1529 1530 1530 1531 1532 1532 1533 1533 1533 1534 1534 1534
1491 1497 1492 1487 1486 1485 1484 1484 1484 1485 1485 1487 1488 1489 1492 1495 1498 1500 1502 1504 1507 1509 1511 1513 1514 1516 1518 1519 1520 1521 1522 1523 1524 1525 1526 1527 1527 1528 1529 1529 1530 1530 1531 1531 1532 1532 1533 1533 1533
1487 1489 1486 1485 1484 1484 1484 1484 1484 1484 1486 1486 1486 1488 1491 1494 1497 1499 1501 1503 1505 1508 1510 1512 1513 1515 1516 1517 1519 1520 1521 1522 1523 1524 1525 1526 1526 1527 1527 1528 1528 1529 1530 1530 1531 1531 1531 1531 1532
1485 1484 1483 1483 1483 1483 1484 1484 1485 1484 1484 1485 1486 1487 1490 1492 1495 1497 1499 1502 1504 1506 1508 1510 1512 1513 1515 1516 1517 1519 1520 1521 1522 1523 1523 1524 1525 1525 1526 1526 1527 1527 1528 1529 1529 1529 1530 1530 1530
1483 1482 1482 1482 1483 1483 1483 1484 1484 1483 1483 1484 1485 1487 1489 1491 1493 1496 1498 1501 1503 1505 1506 1509 1510 1512 1513 1515 1516 1517 1518 1519 1520 1521 1522 1523 1523 1524 1524 1525 1525 1526 1526 1527 1527 1528 1528 1528 1528
1480 1481 1481 1481 1481 1482 1483 1482 1483 1480 1481 1482 1484 1485 1487 1489 1491 1494 1496 1498 1500 1502 1505 1507 1508 1510 1511 1513 1514 1515 1517 1518 1519 1520 1520 1521 1522 1522 1522 1523 1523 1524 1524 1525 1525 1526 1526 1526 1526
1479 1481 1481 1479 1479 1480 1482 1483 1479 1477 1480 1480 1481 1483 1485 1487 1489 1491 1493 1495 1498 1500 1502 1504 1506 1508 1509 1511 1512 1514 1515 1516 1517 1518 1519 1519 1520 1520 1521 1521 1521 1522 1523 1523 1523 1524 1524 1524 1524
1478 1482 1485 1478 1477 1478 1484 1483 1475 1475 1476 1477 1479 1480 1482 1484 1486 1488 1491 1493 1495 1497 1499 1501 1503 1505 1507 1509 1511 1512 1513 1514 1515 1516 1517 1517 1518 1518 1519 1519 1519 1520 1520 1521 1521 1521 1521 1521 1521
1481 1486 1484 1479 1475 1476 1480 1479 1472 1472 1473 1474 1475 1477 1479 1481 1483 1485 1487 1490 1492 1494 1496 1498 1501 1503 1505 1507 1508 1510 1511 1512 1513 1514 1515 1515 1516 1516 1516 1517 1517 1518 1518 1518 1518 1518 1518 1518 1518
1483 1483 1480 1479 1474 1476 1477 1476 1471 1470 1471 1471 1472 1473 1475 1476 1478 1481 1484 1486 1489 1491 1493 1495 1498 1500 1502 1504 1506 1508 1509 1510 1511 1512 1513 1513 1514 1514 1514 1514 1515 1515 1515 1515 1515 1515 1515 1515 1515
1474 1476 1477 1475 1472 1474 1475 1474 1470 1468 1468 1468 1468 1469 1471 1472 1475 1478 1480 1483 1485 1488 1490 1492 1494 1497 1499 1501 1502 1504 1506 1507 1508 1509 1510 1510 1511 1511 1511 1511 1512 1512 1512 1512 1512 1512 1512 1512 1512
1472 1475 1476 1474 1472 1473 1474 1472 1467 1465 1464 1463 1463 1464 1466 1468 1471 1473 1476 1478 1481 1483 1486 1488 1491 1493 1496 1498 1500 1502 1503 1504 1506 1506 1507 1508 1508 1508 1508 1508 1509 1509 1509 1509 1509 1509 1509 1509 1510
1471 1474 1475 1475 1473 1472 1474 1472 1466 1461 1459 1459 1459 1460 1461 1463 1465 1468 1471 1474 1477 1479 1482 1485 1487 1490 1492 1495 1497 1499 1500 1501 1502 1503 1504 1504 1505 1505 1505 1505 1505 1505 1506 1506 1506 1506 1506 1506 1507
1470 1467 1470 1472 1478 1482 1478 1483 1467 1461 1458 1455 1454 1455 1456 1459 1461 1464 1466 1469 1472 1475 1479 1482 1484 1487 1489 1492 1493 1495 1496 1497 1498 1500 1500 1501 1501 1501 1502 1502 1502 1502 1502 1502 1502 1503 1503 1503 1503
1465 1464 1468 1471 1477 1482 1479 1483 1469 1460 1458 1453 1451 1451 1452 1454 1457 1460 1462 1465 1469 1472 1476 1478 1481 1484 1486 1489 1491 1492 1494 1495 1496 1497 1497 1498 1498 1498 1498 1498 1499 1499 1499 1499 1499 1499 1500 1500 1500
1462 1466 1471 1475 1480 1484 1477 1481 1470 1461 1453 1450 1448 1448 1449 1452 1454 1457 1460 1463 1467 1470 1473 1476 1478 1481 1484 1486 1488 1489 1491 1492 1493 1493 1494 1494 1494 1494 1494 1495 1495 1496 1495 1496 1496 1496 1496 1496 1496
1462 1471 1482 1484 1487 1482 1472 1473 1464 1452 1448 1446 1446 1446 1447 1450 1452 1455 1458 1461 1464 1467 1470 1473 1476 1478 1481 1483 1485 1486 1488 1489 1489 1490 1490 1490 1491 1491 1491 1491 1492 1492 1492 1492 1492 1492 1492 1492 1492
1462 1465 1476 1482 1482 1478 1470 1470 1459 1449 1445 1444 1445 1446 1447 1449 1451 1453 1456 1459 1462 1465 1468 1471 1473 1475 1478 1480 1481 1483 1484 1485 1486 1487 1487 1487 1487 1488 1488 1488 1489 1489 1489 1489 1489 1488 1488 1488 1488
1461 1464 1464 1473 1477 1477 1470 1463 1455 1448 1447 1446 1446 1446 1447 1449 1450 1453 1455 1458 1460 1463 1466 1468 1470 1473 1475 1477 1478 1480 1481 1482 1483 1483 1484 1484 1485 1485 1485 1485 1486 1486 1485 1485 1485 1485 1484 1484 1484
1457 1459 1466 1471 1475 1471 1465 1462 1459 1452 1450 1449 1448 1448 1449 1450 1451 1453 1455 1457 1460 1462 1465 1467 1469 1470 1472 1474 1475 1477 1478 1479 1479 1480 1480 1481 1481 1482 1482 1482 1482 1482 1482 1481 1481 1481 1480 1480 1479
1459 1461 1463 1468 1470 1470 1467 1462 1451 1450 1449 1449 1449 1449 1450 1450 1451 1453 1455 1457 1460 1462 1464 1465 1467 1469 1470 1471 1472 1474 1475 1475 1476 1476 1477 1478 1478 1478 1478 1479 1479 1478 1478 1477 1477 1477 1476 1475 1475
1458 1460 1463 1467 1469 1470 1470 1464 1449 1449 1449 1449 1450 1451 1451 1452 1453 1454 1455 1457 1459 1461 1463 1464 1466 1467 1468 1469 1470 1471 1472 1472 1473 1473 1474 1475 1475 1475 1475 1475 1475 1475 1474 1474 1473 1472 1472 1471 1470